Location: Czu?�w
(50.1404°N, 18.9919°E)
Time: 03:19:37
(UTC+00:00)

CZ-2C R/B - Pass Details

Date: 27 October 2020
Orbit: 703 x 909 km, 98.1° (Epoch: 24 November)

Event Time Altitude Azimuth Distance (km) Brightness Sun altitude
Rises 16:45:27 0° 149° (SSE) 3,524 6.2 -12.8°
Reaches altitude 10° 16:47:55 10° 145° (SE) 2,578 5.4 -13.2°
Maximum altitude 16:53:33 55° 69° (ENE) 1,059 3.4 -14.1°
Drops below altitude 10° 16:59:00 10° 353° (N) 2,508 5.7 -15.0°
Sets 17:01:23 0° 350° (N) 3,421 6.5 -15.4°
